Regional Weather Roundup
Issued by NWS

Home | Current Version | Previous Version | Text Only | Print | Product List | Glossary On
Versions: 1 2 3 4 5 6 7 8 9 10 11 12 13 14 15 16 17 18 19 20 21 22 23 24 25 26 27 28 29 30 31 32 33 34 35 36 37 38 39 40 41 42 43 44 45 46 47 48 49 50
000
ASUS43 KBIS 271120
RWRND

NORTH DAKOTA REGIONAL WEATHER ROUNDUP
NATIONAL WEATHER SERVICE BISMARCK ND
600 AM CDT FRI MAR 27 2015

NOTE: "FAIR" INDICATES FEW OR NO CLOUDS BELOW 12,000 FEET WITH NO
SIGNIFICANT WEATHER AND/OR OBSTRUCTIONS TO VISIBILITY.


NDZ001>003-009>011-017-271200-
NORTHWEST NORTH DAKOTA

CITY           SKY/WX    TMP DP  RH WIND       PRES   REMARKS
WILLISTON      CLOUDY    37  30  75 SE7       29.98F
MINOT          LGT SNOW  29  20  69 S12       30.07F WCI  19
MINOT AFB      LGT SNOW  28  28 100 S12       30.06F FOG     WCI  18
$$

NDZ018>021-031>035-040>046-271200-
SOUTHWEST NORTH DAKOTA

CITY           SKY/WX    TMP DP  RH WIND       PRES   REMARKS
BISMARCK       CLOUDY    26  16  65 SE10      30.17F WCI  16
DICKINSON      CLOUDY    33  29  85 S14       30.00F
GARRISON         N/A     29  20  69 S13       30.09F WCI  19
HETTINGER ARPT FLURRIES  32  28  85 SE12      30.06F
$$

NDZ004>008-012>016-024-026-027-054-271200-
NORTHEAST NORTH DAKOTA

CITY           SKY/WX    TMP DP  RH WIND       PRES   REMARKS
GRAND FORKS    PTCLDY    13   9  84 S5        30.26F WCI   5
GRND FRKS AFB  MOCLDY    14  10  84 S3        30.25F
DEVILS LAKE    CLOUDY    21  16  79 S9        30.18F WCI  11
$$

NDZ022-023-025-028>030-036>039-047>053-271200-
SOUTHEAST NORTH DAKOTA

CITY           SKY/WX    TMP DP  RH WIND       PRES   REMARKS
FARGO          FAIR      11   7  84 CALM      30.28S
JAMESTOWN      MOCLDY    20  15  81 S8        30.22F WCI  10
$$




USA.gov is the U.S. government's official web portal to all federal, state and local government web resources and services.